Regional Weather Roundup
Issued by NWS

Home | Current Version | Previous Version | Graphics & Text | Print | Product List | Glossary On
Versions: 1 2 3 4 5 6 7 8 9 10 11 12 13 14 15 16 17 18 19 20 21 22 23 24 25 26 27 28 29 30 31 32 33 34 35 36 37 38 39 40 41 42 43 44 45 46 47 48 49 50
740
ASUS43 KBIS 080502
RWRND

NORTH DAKOTA REGIONAL WEATHER ROUNDUP
NATIONAL WEATHER SERVICE BISMARCK ND
1100 PM CST SUN FEB 07 2016

NOTE: "FAIR" INDICATES FEW OR NO CLOUDS BELOW 12,000 FEET WITH NO
SIGNIFICANT WEATHER AND/OR OBSTRUCTIONS TO VISIBILITY.


NDZ001>003-009>011-017-080600-
NORTHWEST NORTH DAKOTA

CITY           SKY/WX    TMP DP  RH WIND       PRES   REMARKS
WILLISTON      CLEAR     28  19  69 NW21G32   30.30S WCI  15
MINOT          FLURRIES  28  16  60 NW28G38   30.16S WCI  13
MINOT AFB      MOCLDY    27  19  73 NW26G38   30.16R WCI  11
$$

NDZ018>021-031>035-040>046-080600-
SOUTHWEST NORTH DAKOTA

CITY           SKY/WX    TMP DP  RH WIND       PRES   REMARKS
BISMARCK       CLEAR     30  17  58 NW29G41   30.16S WCI  15
DICKINSON      CLEAR     26  14  60 NW21      30.23R WCI  12
GARRISON         N/A     26  18  71 NW35G41   30.17S WCI   9
HETTINGER ARPT CLEAR     27  15  61 NW21G32   30.25R WCI  13
$$

NDZ004>008-012>016-024-026-027-054-080600-
NORTHEAST NORTH DAKOTA

CITY           SKY/WX    TMP DP  RH WIND       PRES   REMARKS
GRAND FORKS    LGT SNOW  14   9  80 N26G36    30.05R BLWGSNOWWCI  -6
GRND FRKS AFB  LGT SNOW  14  10  85 N16       30.05R WCI  -2
DEVILS LAKE    FLURRIES  19  13  77 N30G37    30.06S WCI   0
$$

NDZ022-023-025-028>030-036>039-047>053-080600-
SOUTHEAST NORTH DAKOTA

CITY           SKY/WX    TMP DP  RH WIND       PRES   REMARKS
FARGO          LGT SNOW  15  10  80 N30G36    30.02S VSB 1   WCI  -5
JAMESTOWN      CLOUDY    22  15  75 N22G30    30.05R WCI   6
$$





USA.gov is the U.S. government's official web portal to all federal, state and local government web resources and services.